Location: Unspecified
(48.7670°N, 0.0000°E)
Time: 04:40:25
(UTC+00:00)

Vanguard 2 Rocket - Pass Details

Date: 04 October 2020
Orbit: 554 x 3326 km, 32.9° (Epoch: 26 October)

Event Time Altitude Azimuth Distance (km) Brightness Sun altitude
Exits shadow 01:44:36 43° 163° (SSE) 3,853 9.7 -39.3°
Maximum altitude 01:44:37 43° 163° (SSE) 3,854 9.7 -39.3°
Drops below altitude 10° 02:02:44 10° 102° (ESE) 6,264 11.4 -37.3°
Sets 02:07:49 0° 96° (E) 7,186 11.9 -36.8°
